Location: Lansingburgh
(42.7845°N, 73.6696°W)
Time: 16:53:20
(UTC+00:00)

SL-8 Rocket - Pass Details

Date: 24 January 2020
Orbit: 956 x 991 km, 82.9° (Epoch: 21 February)

Event Time Altitude Azimuth Distance (km) Brightness Sun altitude
Rises 22:29:19 0° 166° (SSE) 3,689 7.1 -6.3°
Reaches altitude 10° 22:31:55 10° 161° (SSE) 2,742 6.4 -6.8°
Maximum altitude 22:37:52 46° 90° (E) 1,304 4.3 -7.8°
Drops below altitude 10° 22:43:48 10° 19° (NNE) 2,742 6.0 -8.8°
Sets 22:46:24 0° 14° (NNE) 3,689 6.7 -9.3°
